STARLINK-35346, 66179

Orbit data source: Space-Track

STARLINK-35346, 66179 is a payload satellite owned by SpaceX/Seattle (US) in LEO that was launched on Sun, 26 Oct 2025 UTC via an FALCON 9 launch vehicle from the Air Force Eastern Test Range (AFETR). Payload-class satellites include a variety of spacecraft equipped with specific instruments for various scientific and technological missions. These include communications satellites like Starlink; space stations such as the ISS; scientific satellites like the Hubble; Earth observation satellites from companies like Planet Labs, Umbra, and HawkEye 360; GPS; miniature CubeSats for education and research; and military/defense satellites.

Loading next visibility...
Identifier
66179, 2025-243C
Orbit
LEO
Country
Flag of USUS
Related business
Manufacturer
SpaceX/Seattle
Mission
Operational Commercial Communications
Bus & Motor
STARLINK V2MO, Unknown motor
Mass
575 kg wet, ~530 kg dry
Launch date (UTC)
2025-10-26 (8 months ago)
Launch vehicle
FALCON 9
Launch site
Air Force Eastern Test Range (AFETR)
Object type
Payload
Rocket body
Debris
Shape & HBR
Box + 2 Pan, 17.7 m
Radar Cross Section
36.964 m², Large (>1 m²)

Expand to show TLE details & history
Last TLE update: 20 hours ago

TLE from 20 hours ago
0 STARLINK-35346
1 66179U 25243C   26171.14415703  .00019322  00000-0  58127-3 0  9990
2 66179  53.1629 129.1069 0001451  96.9415 263.1753 15.34413618 36349
Epoch: 2026-06-20T03:27Z
TLE epoch observation values (Epoch: 2026-06-20T03:27:35.167Z)
Latitude
0.00001°
Longitude
168.84737°
Altitude
463.683 km
Speed
7.636 km/s
True Right ascension
08h 36m 25s
True Declination
0° 00' 00"
Sunlit
Object was in daylight at epoch
Visualization orbit readout
Latitude
Unknown
Longitude
Unknown
Altitude
Unknown
Speed
Unknown
Apparent Right ascension
Unknown
Apparent Declination
Unknown
Sunlit
N/A
Visualization observer readout
Local Sidereal Time
10:20:29
Azimuth
Unknown
Elevation
Unknown
Doppler factor
Unknown
Orbital elements
Apogee altitude
463.912 km
Perigee altitude
461.927 km
Semi-major axis
6,841.056 km
Eccentricity
0.00015
Inclination
53.1629°
RAAN
129.1069°
Arg. of periapsis
96.9415°
True anomaly
263.15879°
Mean anomaly
263.1753°
Eccentric anomaly
263.16705°
Mean motion
3.83582 °/min
Orbital period
93.85 mins
BSTAR
0.00058127
Loading maneuver chart data...
Computing Atmospheric mass density...
Loading historical data...
Loading historical data...
Loading historical data...
Loading historical data...
Loading historical data...
Loading historical data...
Loading historical data...

Documentation

Showing up to 5 results
|